Location: Unspecified
(0.0000°N, 0.0000°E)
Time: 14:05:02
(UTC+00:00)

Vanguard 3 - All Passes

Search period start: 02 February 2023 00:00
Search period end: 12 February 2023 00:00
Orbit: 509 x 3252 km, 33.4° (Epoch: 01 February)

Date Brightness Start Highest point End Pass type
(mag) Time Alt. Az. Time Alt. Az. Time Alt. Az.
02 Feb - 00:04:42 10° NNW 00:21:00 34° NNE 00:36:52 10° E visible
02 Feb - 02:19:24 10° NW 02:39:30 73° NE 02:54:15 10° ESE visible
02 Feb - 04:38:11 10° WNW 04:55:09 47° SW 05:06:02 10° SSE visible
02 Feb - 07:07:00 10° SW 07:09:27 11° SW 07:11:41 10° SSW daylight
02 Feb - 13:51:55 10° SSW 13:54:54 21° SE 13:58:32 10° E daylight
02 Feb - 16:01:52 10° W 16:06:20 39° NNW 16:13:22 10° NE daylight
02 Feb - 18:17:16 10° NW 18:21:11 14° NNW 18:26:03 10° NNE daylight
02 Feb - 20:35:54 10° N 20:40:04 12° N 20:44:48 10° NNE visible
02 Feb - 22:48:28 10° NNW 23:01:14 23° NNE 23:15:22 10° ENE visible
03 Feb - 01:01:47 10° NW 01:20:42 53° NNE 01:37:09 10° ESE visible
03 Feb - 03:18:04 10° WNW 03:37:50 73° SW 03:51:16 10° SE visible
03 Feb - 05:40:44 10° W 05:52:40 25° SW 06:01:02 10° SSE visible
03 Feb - 14:47:10 10° SW 14:51:07 90° NNW 14:56:57 10° NE daylight
03 Feb - 17:00:12 10° WNW 17:04:10 18° NNW 17:09:34 10° NNE daylight
03 Feb - 21:33:03 10° NNW 21:41:20 16° NNE 21:51:02 10° NE visible
03 Feb - 23:45:06 10° NNW 00:01:27 37° NNE 00:18:10 10° E visible
04 Feb - 01:59:26 10° NW 02:19:39 80° NE 02:35:27 10° ESE visible
04 Feb - 04:18:26 10° WNW 04:35:38 43° SW 04:47:16 10° SSE visible
04 Feb - 06:48:32 10° SW 06:50:47 11° SSW 06:52:53 10° SSW daylight
04 Feb - 13:33:16 10° SSW 13:36:28 27° SE 13:40:14 10° E daylight
04 Feb - 15:44:10 10° W 15:48:03 28° NNW 15:53:41 10° NNE daylight
04 Feb - 20:19:47 10° N 20:21:41 10° NNE 20:23:42 10° NNE visible
04 Feb - 22:29:17 10° NNW 22:42:00 25° NNE 22:56:40 10° ENE visible
05 Feb - 00:42:00 10° NW 01:00:50 58° NE 01:18:15 10° ESE visible
05 Feb - 02:58:11 10° WNW 03:18:00 67° SW 03:32:23 10° SE visible
05 Feb - 05:21:28 10° W 05:33:32 23° SW 05:42:18 10° SSE visible
05 Feb - 14:29:01 10° WSW 14:32:46 63° NNW 14:37:54 10° NE daylight
05 Feb - 16:43:38 10° NW 16:45:57 12° NNW 16:48:42 10° N daylight
05 Feb - 21:14:29 10° N 21:22:32 16° NNE 21:32:08 10° NE visible
05 Feb - 23:25:36 10° NNW 23:41:45 40° NNE 23:59:15 10° E visible
06 Feb - 01:39:36 10° NW 01:59:39 87° NE 02:16:26 10° SE visible
06 Feb - 03:58:48 10° W 04:16:02 40° SW 04:28:22 10° SSE visible
06 Feb - 06:29:51 10° SW 06:32:08 11° SSW 06:34:15 10° SSW daylight
06 Feb - 13:14:37 10° SSW 13:18:04 37° SE 13:21:53 10° ENE daylight
06 Feb - 15:26:39 10° WNW 15:29:48 19° NNW 15:33:53 10° NNE daylight
06 Feb - 22:10:08 10° NNW 22:22:40 27° NNE 22:37:47 10° E visible
07 Feb - 00:22:20 10° NW 00:40:49 64° NE 00:59:09 10° ESE visible
07 Feb - 02:38:26 10° WNW 02:58:04 61° SW 03:13:20 10° SE visible
07 Feb - 05:02:15 10° WSW 05:14:22 22° SW 05:23:29 10° SSE visible
07 Feb - 12:01:24 10° S 12:03:06 12° SSE 12:04:45 10° ESE daylight
07 Feb - 14:10:55 10° WSW 14:14:27 42° NNW 14:18:51 10° NE daylight
07 Feb - 20:55:49 10° N 21:03:39 16° NNE 21:13:13 10° ENE visible
07 Feb - 23:06:10 10° NNW 23:21:57 44° NE 23:40:05 10° E visible
08 Feb - 01:19:54 10° NW 01:39:32 86° SW 01:57:14 10° SE visible
08 Feb - 03:39:16 10° W 03:56:24 37° SW 04:09:22 10° SSE visible
08 Feb - 06:10:53 10° SW 06:13:29 11° SSW 06:15:54 10° SSW daylight
08 Feb - 12:56:00 10° SW 12:59:42 54° SE 13:03:29 10° ENE daylight
08 Feb - 15:09:35 10° NW 15:11:32 13° NNW 15:13:45 10° N daylight
08 Feb - 21:51:00 10° NNW 22:03:14 29° NNE 22:18:41 10° E visible
09 Feb - 00:02:48 10° NW 00:20:44 69° NE 00:39:50 10° ESE visible
09 Feb - 02:18:50 10° WNW 02:38:04 56° SW 02:54:07 10° SE visible
09 Feb - 04:43:07 10° WSW 04:55:12 21° SSW 05:04:36 10° SSE visible
09 Feb - 11:41:43 10° SSW 11:44:45 18° SSE 11:47:25 10° ESE daylight
09 Feb - 13:52:53 10° W 13:56:07 28° NNW 13:59:46 10° NNE daylight
09 Feb - 20:37:04 10° N 20:44:42 17° NNE 20:54:14 10° ENE visible
09 Feb - 22:46:51 10° NW 23:02:03 48° NE 23:20:44 10° ESE visible
10 Feb - 01:00:22 10° WNW 01:19:22 80° SW 01:37:51 10° SE visible
10 Feb - 03:19:53 10° W 03:36:45 34° SW 03:50:14 10° SSE visible
10 Feb - 05:51:36 10° SW 05:54:50 11° SSW 05:57:47 10° S visible
10 Feb - 12:37:20 10° SW 12:41:20 83° SE 12:45:03 10° ENE daylight
10 Feb - 21:31:54 10° NNW 21:43:44 31° NE 21:59:24 10° E visible
10 Feb - 23:43:24 10° NW 00:00:34 75° NE 00:20:18 10° ESE visible
11 Feb - 01:59:23 10° WNW 02:18:03 52° SW 02:34:45 10° SE visible
11 Feb - 04:24:03 10° WSW 04:36:03 20° SSW 04:45:42 10° SSE visible
11 Feb - 11:22:19 10° SSW 11:26:24 27° SSE 11:29:40 10° E daylight
11 Feb - 13:34:57 10° W 13:37:43 20° NNW 13:40:37 10° NNE daylight
11 Feb - 20:18:16 10° N 20:25:42 17° NNE 20:35:12 10° ENE visible
11 Feb - 22:27:37 10° NW 22:42:07 52° NE 23:01:09 10° ESE visible
